This demonstration page uses our WeatherBlox Daily Observations layout. Learn more.

Left ArrowRight Arrow

34.74481, -87.66753

Hourly Observations for December 30, 2018

Temp ( °F °C ) Dew Point ( °F °C ) Humidity (%) Winds ( mph kmh ) Pressure ( in mb ) Visibility ( mi km ) Precip ( " mm )
12:53 am 00:53 Cloudy 46 7.8 37 2.8 71 71 N 6 9 30.20 1023 10 16 0.00 0.00
1:53 am 01:53 Cloudy 46 7.8 36 2.2 68 68 N 5 7 30.21 1023 10 16 0.00 0.00
2:26 am 02:26 Cloudy 46 7.8 36 2.2 68 68 N 3 6 30.21 1023 10 16 0.00 0.00
2:53 am 02:53 Cloudy 45 7.2 36 2.2 71 71 N 3 6 30.21 1023 10 16 0.00 0.00
3:53 am 03:53 Cloudy 45 7.2 36 2.2 71 71 NNE 5 7 30.19 1023 10 16 0.00 0.00
4:53 am 04:53 Cloudy 44 6.7 36 2.2 73 73 NE 7 11 30.20 1023 10 16 0.00 0.00
5:53 am 05:53 Cloudy 44 6.7 36 2.2 73 73 NE 5 7 30.22 1023 10 16 0.00 0.00
6:53 am 06:53 Cloudy 44 6.7 36 2.2 73 73 E 6 9 30.22 1023 10 16 0.00 0.00
7:19 am 07:19 Cloudy 44 6.7 37 2.8 76 76 ESE 8 13 30.21 1023 10 16 0.00 0.00
7:45 am 07:45 Cloudy 44 6.7 37 2.8 76 76 SE 6 9 30.21 1023 10 16 0.00 0.00
7:53 am 07:53 Cloudy 45 7.2 38 3.3 77 77 SSE 8 13 30.22 1024 10 16 0.00 0.00
8:53 am 08:53 Cloudy 45 7.2 40 4.4 83 83 ESE 3 6 30.22 1023 10 16 0.00 0.00
9:53 am 09:53 Cloudy 47 8.3 41 5 80 80 E 7 11 30.20 1023 10 16 0.00 0.00
10:53 am 10:53 Cloudy 50 10 43 6.1 77 77 SE 5 7 30.18 1022 10 16 0.00 0.00
11:53 am 11:53 Cloudy 53 11.7 44 6.7 72 72 SSE 7 11 30.14 1021 10 16 0.00 0.00
12:53 pm 12:53 Cloudy 55 12.8 46 7.8 72 72 SE 3 6 30.11 1020 10 16 0.00 0.00
1:53 pm 13:53 Cloudy 57 13.9 47 8.3 69 69 SSE 5 7 30.10 1019 10 16 0.00 0.00
2:53 pm 14:53 Mostly Cloudy 57 13.9 48 8.9 72 72 ESE 6 9 30.09 1019 10 16 0.00 0.00
3:41 pm 15:41 Mostly Cloudy 57 13.9 49 9.4 74 74 E 5 7 30.09 1019 10 16 0.00 0.00
3:49 pm 15:49 Mostly Cloudy 57 14 48 9 72 72 E 5 7 30.09 1019 10 16 0.00 0.00
3:53 pm 15:53 Mostly Cloudy 57 13.9 49 9.4 74 74 ESE 3 6 30.09 1019 10 16 0.00 0.00
4:53 pm 16:53 Cloudy 56 13.3 50 10 81 81 E 6 9 30.08 1019 10 16 0.00 0.00
5:53 pm 17:53 Partly Cloudy 55 12.8 49 9.4 80 80 E 3 6 30.09 1019 10 16 0.00 0.00
6:08 pm 18:08 Mostly Cloudy 55 12.8 49 9.4 80 80 ESE 6 9 30.09 1019 10 16 0.00 0.00
6:53 pm 18:53 Cloudy 56 13.3 50 10 81 81 E 6 9 30.08 1019 10 16 0.00 0.00
7:53 pm 19:53 Cloudy 55 12.8 51 10.6 87 87 ESE 8 13 30.06 1018 10 16 0.00 0.00
8:04 pm 20:04 Cloudy 55 12.8 52 11.1 90 90 ESE 7 11 30.06 1018 10 16 0.00 0.00
8:53 pm 20:53 Cloudy 56 13.3 52 11.1 87 87 ESE 8 13 30.05 1018 10 16 0.00 0.00
9:53 pm 21:53 Cloudy with Light Rain 55 12.8 53 11.7 93 93 ESE 9 15 30.02 1017 8 13 0.00 0.03
10:42 pm 22:42 Cloudy with Heavy Rain 55 12.8 53 11.7 93 93 SE 7 11 30.03 1017 2 3 0.11 2.79
10:53 pm 22:53 Cloudy with Heavy Rain 55 12.8 54 12.2 96 96 ESE 7 11 29.99 1016 2 3 0.20 5.08
10:59 pm 22:59 Cloudy with Heavy Rain 55 12.8 53 11.7 93 93 ESE 5 7 30.00 1016 2 3 0.09 2.29
11:11 pm 23:11 Cloudy with Heavy Rain 55 12.8 54 12.2 96 96 E 5 7 30.00 1016 1 2 0.30 7.62
11:19 pm 23:19 Cloudy with Heavy Rain 55 12.8 53 11.7 93 93 E 5 7 30.00 1016 3 5 0.34 8.64
11:27 pm 23:27 Cloudy with Heavy Rain 55 12.8 53 11.7 93 93 E 8 13 30.00 1016 2 3 0.44 11.18
11:34 pm 23:34 Cloudy with Nearby Thunderstorms 55 12.8 53 11.7 93 93 ENE 6 9 30.00 1016 4 6 0.45 11.43
11:53 pm 23:53 Cloudy with Mist and Fog 55 12.8 54 12.2 96 96 Calm 30.00 1016 3 4 0.46 11.68

Powered by AerisWeather